Home > Weather > Entebbe > Past weeks

Flag for Uganda Past Weather in Entebbe, Uganda — Yesterday and Last 2 Weeks

Now
77 °F

Passing clouds.


Feels Like: 79 °F
Forecast: 64 / 73 °F
Wind: 6 mph from South

Location: Entebbe Airport

Current Time: Jun 30, 2016 at 5:11:55 PM

Latest Report: Jun 30, 2016 at 4:00 PM


Visibility: N/A

Pressure: 30.12 "Hg (26.37 "Hg at 1160m altitude)

Humidity: 61%

Dew Point: 63 °F

Location of EntebbeLocation

Past Weather in Entebbe — Graph

°F

Entebbe Temperature Yesterday

Maximum temperature yesterday: 79 °F (at 1:00 PM)
Minimum temperature yesterday: 64 °F (at 6:00 AM)
Average temperature yesterday: 72 °F

High & Low Weather Summary for the Past Weeks

 TemperatureHumidityPressure
High79 °F (Jun 16, 3:00 PM)100% (Jun 18, 9:00 PM)30.21 "Hg (Jun 18, 9:00 PM)
Low64 °F (Jun 18, 9:00 PM)38% (Jun 16, 8:00 PM)30.01 "Hg (Jun 24, 5:00 PM)
Average71 °F79%30.11 "Hg
* Reported Jun 15 3:00 PM — Jun 30 3:00 PM, Entebbe, Weather by CustomWeather, © 2016

Note: Actual official high and low records may vary slightly from our data, if they occured in-between our weather recording intervals... More about our weather records

Advertising

Entebbe Weather History for the Previous 24 Hours

Scroll right to see more
 ConditionsComfort  
Time TempWeatherWind HumidityBarometerVisibility
3:00 PM
Thu, Jun 30
77 °FWarm.N/A65%30.15 "HgN/A
2:00 PM77 °FScattered clouds.14 mph65%30.15 "HgN/A
1:00 PM77 °FPartly sunny.8 mph65%30.18 "HgN/A
12:00 PM77 °FScattered clouds.12 mph65%30.21 "HgN/A
11:00 AM75 °FScattered clouds.14 mph69%30.21 "Hg6 mi
10:00 AM73 °FPassing clouds.5 mph78%30.18 "Hg5 mi
9:00 AM70 °FPassing clouds.6 mph83%30.18 "Hg5 mi
8:00 AM66 °FScattered clouds.8 mph88%30.18 "Hg6 mi
7:00 AM64 °FPartly sunny.8 mph88%30.15 "Hg6 mi
6:00 AM66 °FPassing clouds.9 mph88%30.12 "Hg6 mi
5:00 AM66 °FPassing clouds.9 mph94%30.09 "Hg6 mi
4:00 AM66 °FPassing clouds.7 mph94%30.09 "Hg6 mi
3:00 AM72 °FPassing clouds.6 mph73%30.09 "HgN/A
2:00 AM72 °FPassing clouds.No wind73%30.09 "HgN/A
1:00 AM70 °FPassing clouds.No wind78%30.12 "HgN/A
12:00 AM72 °FPassing clouds.5 mph73%30.15 "HgN/A
10:00 PM
Wed, Jun 29
72 °FPassing clouds.10 mph65%30.12 "Hg6 mi
9:00 PM73 °FPassing clouds.9 mph61%30.12 "HgN/A
8:00 PM72 °FPassing clouds.7 mph78%30.09 "HgN/A
7:00 PM73 °FPassing clouds.7 mph69%30.09 "HgN/A
6:00 PM75 °FPassing clouds.8 mph61%30.09 "HgN/A
5:00 PM77 °FPassing clouds.9 mph57%30.09 "HgN/A
Weather by CustomWeather, © 2016

See weather overviewHow to use our weather pages